This is the latest recevied weather packets stored in our database for station/object OE5WWO. If no packets are shown the sender has not sent any weather packets the latest 10 day(s).
| Time | Temp. | Humidity | Pressure | Rain* | Wind** | Luminosity | Snow |
|---|---|---|---|---|---|---|---|
| 1778038841 | 11.67° C | 91% | 1008.9 hPa | 0 mm | - | - | - |
| 1778038251 | 11.67° C | 91% | 1008.7 hPa | 0 mm | - | - | - |
| 1778037641 | 11.67° C | 90% | 1008.3 hPa | 0 mm | - | - | - |
| 1778036742 | 11.67° C | 90% | 1008.5 hPa | 0 mm | - | - | - |
| 1778034663 | 12.78° C | 90% | 1008.6 hPa | 0 mm | - | - | - |
| 1778032850 | 12.78° C | 89% | 1008.4 hPa | 0 mm | - | - | - |
| 1778031059 | 13.33° C | 89% | 1008.6 hPa | 0 mm | - | - | - |
| 1778029255 | 13.33° C | 89% | 1008.8 hPa | 0 mm | - | - | - |
| 1778028638 | 13.33° C | 89% | 1008.8 hPa | 0 mm | - | - | - |
| 1778026842 | 13.89° C | 88% | 1008.5 hPa | 0 mm | - | - | - |
| 1778025344 | 13.89° C | 88% | 1008.4 hPa | 0 mm | - | - | - |
| 1778024141 | 14.44° C | 88% | 1008.3 hPa | 0 mm | - | - | - |
| 1778023853 | 14.44° C | 88% | 1008.3 hPa | 0 mm | - | - | - |
| 1778022639 | 14.44° C | 88% | 1008.1 hPa | 0 mm | - | - | - |
| 1778022339 | 14.44° C | 88% | 1008.2 hPa | 0 mm | - | - | - |
| 1778021739 | 13.89° C | 89% | 1008.1 hPa | 0 mm | - | - | - |
| 1778019638 | 13.89° C | 88% | 1007.8 hPa | 0 mm | - | - | - |
| 1778019038 | 14.44° C | 88% | 1007.7 hPa | 0 mm | - | - | - |
| 1778017556 | 14.44° C | 88% | 1007.2 hPa | 0 mm | - | - | - |
| 1778016939 | 14.44° C | 88% | 1006.9 hPa | 0 mm | - | - | - |
| 1778014851 | 15° C | 88% | 1006.6 hPa | 0 mm | - | - | - |
| 1778014538 | 15° C | 88% | 1006.5 hPa | 0 mm | - | - | - |
| 1778010348 | 15.56° C | 83% | 1005.3 hPa | 1.02 mm | - | - | - |
| 1778008842 | 15.56° C | 81% | 1005.6 hPa | 2.03 mm | - | - | - |
| 1778008560 | 16.11° C | 80% | 1005.9 hPa | 2.54 mm | - | - | - |
* Rain latest hour (hover to see other rain measurements)
** Current wind speed in m/s (hover to see current wind gust speed)